EW9523 Weather Reports


Display with metric or nautical units.
time (UTC)temp
F
wind
direction
speed
MPH
gust
MPH
rain 1hr
in
rain 24hr
in
rain mn
in
humidity
%
barometer
mb
20260904071042 56 58 2.0 4.0 0.00 0.05 0.00 91 1010.8
20260904070037 57 46 1.0 3.0 0.00 0.05 0.00 91 1010.8
20260904065519 56 43 2.0 3.0 0.00 0.05 0.05 92 1010.8
20260904064514 56 58 2.0 3.0 0.00 0.05 0.05 90 1010.8
20260904063519 56 42 3.0 4.0 0.00 0.05 0.05 92 1010.7
20260904062021 56 55 3.0 5.0 0.00 0.05 0.05 92 1010.6
20260904061020 56 48 3.0 5.0 0.00 0.05 0.05 90 1010.6
20260904060016 56 43 2.0 3.0 0.00 0.05 0.05 90 1010.7
20260904055002 57 42 3.0 4.0 0.00 0.05 0.05 90 1010.7
20260904054000 57 46 2.0 4.0 0.00 0.05 0.05 89 1010.7
20260904053435 57 48 2.0 4.0 0.00 0.05 0.05 88 1010.8
20260904051951 58 45 3.0 4.0 0.00 0.05 0.05 87 1010.8
20260904050948 59 61 3.0 4.0 0.00 0.05 0.05 87 1010.8
20260904045939 59 66 3.0 5.0 0.00 0.05 0.05 87 1010.8
20260904044939 59 65 3.0 4.0 0.00 0.05 0.05 86 1010.9
20260904044411 60 30 1.0 3.0 0.00 0.05 0.05 85 1010.9
20260904042921 60 30 1.0 3.0 0.00 0.05 0.05 85 1011.0
20260904041921 61 54 0.0 3.0 0.00 0.05 0.05 86 1011.0
20260904040921 61 349 0.0 0.0 0.00 0.05 0.05 86 1011.0
20260904035900 61 349 0.0 0.0 0.00 0.05 0.05 86 1010.9
20260904034857 61 349 0.0 2.0 0.00 0.05 0.05 86 1010.8
20260904033854 61 22 2.0 4.0 0.00 0.05 0.05 87 1010.7
20260904032853 60 22 0.0 4.0 0.00 0.05 0.05 88 1010.7
20260904031851 61 346 0.0 1.0 0.00 0.05 0.05 88 1010.6
20260904030851 61 355 0.0 2.0 0.00 0.05 0.05 88 1010.5
20260904025849 61 38 3.0 6.0 0.00 0.05 0.05 87 1010.5
20260904024848 61 10 2.0 4.0 0.00 0.05 0.05 86 1010.5
20260904023847 62 36 2.0 5.0 0.00 0.05 0.05 84 1010.6
20260904022843 63 16 3.0 8.0 0.00 0.05 0.05 81 1010.6
20260904021841 64 107 0.0 2.0 0.00 0.05 0.05 83 1010.5
20260904020840 64 271 1.0 5.0 0.00 0.05 0.05 82 1010.6
20260904015829 64 148 1.0 5.0 0.00 0.05 0.05 81 1010.6
20260904014828 65 133 2.0 6.0 0.00 0.05 0.05 80 1010.6
20260904014317 65 155 2.0 5.0 0.00 0.05 0.05 79 1010.6
20260904012827 66 139 2.0 5.0 0.00 0.05 0.05 77 1010.6
20260904011827 67 108 1.0 5.0 0.00 0.05 0.05 73 1010.6
20260904010827 67 256 0.0 3.0 0.00 0.05 0.05 71 1010.7
20260904005804 67 298 0.0 3.0 0.00 0.05 0.05 70 1010.6
20260904005244 67 195 1.0 3.0 0.00 0.05 0.05 70 1010.6
20260904003803 67 270 3.0 6.0 0.00 0.05 0.05 69 1010.7
20260904003232 67 255 1.0 4.0 0.00 0.05 0.05 70 1010.7
20260904001759 67 266 3.0 6.0 0.00 0.05 0.05 70 1010.8
20260904000756 67 275 2.0 6.0 0.00 0.05 0.05 69 1010.8
20260903235755 67 259 5.0 10.0 0.00 0.05 0.05 69 1010.9
20260903235707 67 275 5.0 8.0 0.00 0.05 0.05 70 1010.9
20260903234225 67 311 5.0 10.0 0.00 0.05 0.05 68 1010.9
20260903232743 67 269 5.0 11.0 0.00 0.05 0.05 69 1011.0
20260903231740 67 273 6.0 11.0 0.00 0.05 0.05 68 1011.1
20260903231647 68 253 6.0 12.0 0.00 0.05 0.05 68 1011.2
20260903225737 68 246 6.0 11.0 0.00 0.05 0.05 67 1011.1
20260903224736 69 273 6.0 11.0 0.00 0.05 0.05 66 1011.3
20260903223735 69 183 4.0 9.0 0.00 0.05 0.05 66 1011.4
20260903222733 69 268 5.0 11.0 0.00 0.05 0.05 65 1011.5
20260903221732 69 263 7.0 12.0 0.00 0.05 0.05 65 1011.6
20260903221208 70 281 4.0 12.0 0.00 0.05 0.05 63 1011.5
20260903215731 70 234 3.0 7.0 0.00 0.05 0.05 64 1011.6
20260903214727 70 271 4.0 8.0 0.00 0.05 0.05 65 1011.6
20260903213725 70 262 4.0 9.0 0.00 0.05 0.05 63 1011.5
20260903212725 70 279 4.0 10.0 0.00 0.05 0.05 62 1011.6
20260903211723 71 257 4.0 11.0 0.00 0.05 0.05 62 1011.6
20260903210721 71 244 3.0 10.0 0.00 0.05 0.05 64 1011.5
20260903210205 71 244 3.0 8.0 0.00 0.05 0.05 63 1011.6
20260903204721 71 247 4.0 10.0 0.00 0.05 0.05 65 1011.6
20260903203717 70 217 3.0 11.0 0.00 0.05 0.05 64 1011.7
20260903202717 70 271 3.0 6.0 0.00 0.05 0.05 67 1011.8
20260903201716 70 266 3.0 10.0 0.00 0.05 0.05 68 1011.8
20260903201158 69 271 4.0 9.0 0.00 0.05 0.05 70 1011.7
20260903195712 69 278 4.0 10.0 0.00 0.05 0.05 69 1011.8
20260903194711 69 287 4.0 10.0 0.00 0.05 0.05 73 1011.9
20260903193708 69 261 3.0 7.0 0.00 0.05 0.05 72 1012.0
20260903192709 68 297 5.0 11.0 0.00 0.05 0.05 76 1012.1
20260903191709 69 211 3.0 11.0 0.00 0.05 0.05 78 1012.3
20260903191152 68 259 2.0 6.0 0.00 0.05 0.05 80 1012.4
20260903185708 67 134 2.0 6.0 0.00 0.05 0.05 83 1012.3
20260903184703 67 150 2.0 5.0 0.00 0.05 0.05 82 1012.4
20260903184624 67 167 2.0 6.0 0.00 0.05 0.05 84 1012.5
20260903182658 67 94 2.0 7.0 0.00 0.05 0.05 84 1012.5
20260903182142 67 153 3.0 6.0 0.00 0.05 0.05 85 1012.6
20260903180657 67 101 2.0 6.0 0.00 0.05 0.05 88 1012.7
20260903175655 66 168 2.0 6.0 0.00 0.05 0.05 90 1012.6
20260903174651 65 157 3.0 9.0 0.00 0.05 0.05 93 1012.6
20260903174614 64 104 3.0 8.0 0.00 0.05 0.05 94 1012.5
20260903172645 64 167 4.0 9.0 0.00 0.05 0.05 95 1012.4
20260903172124 63 74 2.0 7.0 0.00 0.05 0.05 95 1012.4
20260903170639 63 148 1.0 6.0 0.00 0.05 0.05 96 1012.6
20260903170119 63 103 1.0 6.0 0.00 0.05 0.05 95 1012.5
20260903164637 62 132 2.0 6.0 0.00 0.05 0.05 96 1012.5
20260903164111 62 135 2.0 9.0 0.00 0.05 0.05 96 1012.4
20260903162635 62 122 2.0 9.0 0.00 0.05 0.05 96 1012.3
20260903161635 62 179 3.0 9.0 0.00 0.05 0.05 96 1012.3
20260903160634 62 128 2.0 9.0 0.01 0.05 0.05 96 1012.5
20260903155632 62 168 2.0 5.0 0.01 0.05 0.05 96 1012.6
20260903154628 61 155 1.0 5.0 0.01 0.05 0.05 96 1012.6
20260903153628 61 194 2.0 5.0 0.01 0.05 0.05 96 1012.6
20260903152628 61 79 2.0 5.0 0.01 0.05 0.05 96 1012.6
20260903151628 61 151 2.0 4.0 0.02 0.05 0.05 96 1012.6
20260903150627 60 126 1.0 4.0 0.01 0.04 0.05 96 1012.6
20260903145626 60 113 1.0 5.0 0.01 0.04 0.04 96 1012.6
20260903145104 60 203 0.0 2.0 0.02 0.04 0.04 96 1012.7
20260903143627 60 248 1.0 2.0 0.02 0.04 0.04 95 1012.7
20260903142627 59 248 1.0 3.0 0.03 0.04 0.04 95 1012.6
20260903141615 59 331 1.0 4.0 0.02 0.03 0.03 95 1012.4
20260903140615 59 87 1.0 3.0 0.02 0.04 0.03 95 1012.4
20260903135607 59 131 1.0 2.0 0.03 0.04 0.03 95 1012.4
20260903134603 59 116 1.0 5.0 0.02 0.03 0.02 95 1012.4
20260903133602 59 297 0.0 0.0 0.02 0.04 0.02 94 1012.5
20260903133044 59 206 0.0 1.0 0.01 0.03 0.01 94 1012.5
20260903132041 59 168 0.0 2.0 0.01 0.03 0.01 94 1012.5
20260903130549 59 267 0.0 2.0 0.01 0.03 0.01 94 1012.6
20260903130017 59 187 1.0 5.0 0.00 0.02 0.00 93 1012.7
20260903124540 59 184 1.0 5.0 0.00 0.03 0.00 93 1012.7
20260903123537 59 178 0.0 4.0 0.00 0.04 0.00 93 1012.8
20260903123012 59 88 1.0 4.0 0.00 0.04 0.00 92 1012.9
20260903121537 59 162 0.0 0.0 0.00 0.05 0.00 92 1013.0
20260903120537 60 213 0.0 0.0 0.00 0.06 0.00 91 1013.1
20260903115536 60 213 0.0 0.0 0.00 0.06 0.00 90 1013.2
20260903114531 60 213 0.0 0.0 0.00 0.07 0.00 90 1013.3
20260903113530 60 213 0.0 0.0 0.00 0.07 0.00 89 1013.3
20260903112521 60 213 0.0 0.0 0.00 0.07 0.00 88 1013.3
20260903111521 60 213 0.0 0.0 0.00 0.07 0.00 88 1013.4
20260903110520 60 213 0.0 0.0 0.00 0.07 0.00 88 1013.4
20260903105513 60 221 0.0 3.0 0.00 0.07 0.00 88 1013.7
20260903104512 60 167 1.0 4.0 0.00 0.07 0.00 88 1013.7
20260903103959 60 124 1.0 5.0 0.00 0.07 0.00 87 1013.8
20260903102505 60 114 0.0 2.0 0.00 0.07 0.00 87 1013.9
20260903101507 60 114 0.0 2.0 0.00 0.07 0.00 87 1013.9
20260903100456 60 213 0.0 3.0 0.00 0.07 0.00 86 1013.9
20260903095457 60 155 0.0 2.0 0.00 0.07 0.00 86 1013.9
20260903094453 60 186 1.0 3.0 0.00 0.07 0.00 86 1013.9
20260903093444 60 97 0.0 0.0 0.00 0.07 0.00 86 1014.1
20260903092927 60 122 0.0 3.0 0.00 0.07 0.00 85 1014.2
20260903091445 60 220 0.0 0.0 0.00 0.07 0.00 85 1014.4
20260903090430 60 220 0.0 1.0 0.00 0.07 0.00 85 1014.4
20260903090341 60 211 1.0 4.0 0.00 0.07 0.00 85 1014.4
20260903084909 60 161 0.0 4.0 0.00 0.07 0.00 85 1014.4
20260903083416 60 165 0.0 6.0 0.00 0.07 0.00 85 1014.5
20260903082414 60 152 0.0 4.0 0.00 0.07 0.00 84 1014.6
20260903081414 60 154 1.0 5.0 0.00 0.07 0.00 84 1014.6
20260903080414 60 150 1.0 5.0 0.00 0.07 0.00 84 1014.6
20260903075414 60 156 1.0 5.0 0.00 0.07 0.00 83 1014.7
20260903074414 61 147 0.0 2.0 0.00 0.07 0.00 82 1014.7
20260903073854 61 115 0.0 2.0 0.00 0.07 0.00 81 1014.8
20260903072400 61 178 0.0 3.0 0.00 0.07 0.00 81 1014.7